Time,TemperatureF,DewpointF,PressureIn,WindDirection,WindDirectionDegrees,WindSpeedMPH,WindSpeedGustMPH,Humidity,HourlyPrecipIn,Conditions,Clouds,dailyrainin,SoftwareType,DateUTC
2013-01-06 00:00:00,26.9,23.0,30.16,NE,38,0.0,0.0,85,0.00,,---,0.10,VWS V14.00,2013-01-06 05:00:00,
2013-01-06 00:01:00,26.9,23.0,30.16,NE,38,0.0,0.0,85,0.00,,---,0.00,VWS V14.00,2013-01-06 05:01:00,
2013-01-06 00:06:00,27.0,23.1,30.16,NE,38,1.0,1.0,85,0.00,,---,0.00,VWS V14.00,2013-01-06 05:06:00,
2013-01-06 00:07:00,27.0,23.1,30.16,NE,38,0.0,0.0,85,0.00,,---,0.00,VWS V14.00,2013-01-06 05:07:00,
2013-01-06 00:12:00,27.0,22.8,30.16,NE,38,0.0,0.0,84,0.00,,---,0.00,VWS V14.00,2013-01-06 05:12:00,
2013-01-06 00:17:00,27.0,23.1,30.15,NE,38,0.0,0.0,85,0.00,,---,0.00,VWS V14.00,2013-01-06 05:17:00,
2013-01-06 00:22:00,27.0,23.1,30.15,NE,38,0.0,0.0,85,0.00,,---,0.00,VWS V14.00,2013-01-06 05:22:00,
2013-01-06 00:27:00,27.0,23.1,30.14,NE,38,0.0,0.0,85,0.00,,---,0.00,VWS V14.00,2013-01-06 05:27:00,
2013-01-06 00:32:00,26.9,23.0,30.14,NE,38,0.0,0.0,85,0.00,,---,0.00,VWS V14.00,2013-01-06 05:32:00,
2013-01-06 00:37:00,26.8,22.9,30.12,NE,38,0.0,0.0,85,0.00,,---,0.00,VWS V14.00,2013-01-06 05:37:00,
2013-01-06 00:42:00,26.9,23.0,30.13,NE,38,1.0,1.0,85,0.00,,---,0.00,VWS V14.00,2013-01-06 05:42:00,
2013-01-06 00:47:00,26.9,23.0,30.14,NE,38,0.0,0.0,85,0.00,,---,0.00,VWS V14.00,2013-01-06 05:47:00,
2013-01-06 00:52:00,26.9,23.3,30.14,NE,38,0.0,0.0,86,0.00,,---,0.00,VWS V14.00,2013-01-06 05:52:00,
2013-01-06 00:57:00,27.0,23.4,30.14,NE,38,0.0,0.0,86,0.00,,---,0.00,VWS V14.00,2013-01-06 05:57:00,
2013-01-06 01:02:00,27.1,23.8,30.13,NE,38,0.0,0.0,87,0.00,,---,0.00,VWS V14.00,2013-01-06 06:02:00,
2013-01-06 01:07:00,27.2,23.9,30.14,NE,38,1.0,1.0,87,0.00,,---,0.00,VWS V14.00,2013-01-06 06:07:00,
2013-01-06 01:12:00,27.2,24.1,30.13,NE,38,0.0,0.0,88,0.00,,---,0.00,VWS V14.00,2013-01-06 06:12:00,
2013-01-06 01:17:00,27.2,23.9,30.14,NE,38,0.0,1.0,87,0.00,,---,0.00,VWS V14.00,2013-01-06 06:17:00,
2013-01-06 01:22:00,27.3,24.2,30.15,NE,38,0.0,1.0,88,0.00,,---,0.00,VWS V14.00,2013-01-06 06:22:00,
2013-01-06 01:27:00,27.4,24.3,30.16,NE,38,0.0,0.0,88,0.00,,---,0.00,VWS V14.00,2013-01-06 06:27:00,
2013-01-06 01:32:00,27.4,24.3,30.16,NE,38,0.0,0.0,88,0.00,,---,0.00,VWS V14.00,2013-01-06 06:32:00,
2013-01-06 01:37:00,27.4,24.3,30.16,NE,38,0.0,0.0,88,0.00,,---,0.00,VWS V14.00,2013-01-06 06:37:00,
2013-01-06 01:42:00,27.4,24.0,30.16,NE,38,0.0,0.0,87,0.00,,---,0.00,VWS V14.00,2013-01-06 06:42:00,
2013-01-06 01:48:00,27.5,24.1,30.16,NE,38,0.0,0.0,87,0.00,,---,0.00,VWS V14.00,2013-01-06 06:48:00,
2013-01-06 01:53:00,27.6,24.2,30.17,NE,38,0.0,0.0,87,0.00,,---,0.00,VWS V14.00,2013-01-06 06:53:00,
2013-01-06 01:58:00,27.6,24.2,30.18,NE,38,0.0,0.0,87,0.00,,---,0.00,VWS V14.00,2013-01-06 06:58:00,
2013-01-06 02:03:00,27.7,23.5,30.18,NE,38,0.0,0.0,84,0.00,,---,0.00,VWS V14.00,2013-01-06 07:03:00,
2013-01-06 02:08:00,27.8,23.6,30.18,NE,38,0.0,0.0,84,0.00,,---,0.00,VWS V14.00,2013-01-06 07:08:00,
2013-01-06 02:13:00,27.9,23.7,30.17,NE,38,0.0,0.0,84,0.00,,---,0.00,VWS V14.00,2013-01-06 07:13:00,
2013-01-06 02:18:00,28.0,23.8,30.18,NE,38,0.0,0.0,84,0.00,,---,0.00,VWS V14.00,2013-01-06 07:18:00,
2013-01-06 02:23:00,28.0,23.5,30.18,NE,38,0.0,0.0,83,0.00,,---,0.00,VWS V14.00,2013-01-06 07:23:00,
2013-01-06 02:28:00,28.1,23.3,30.18,NE,38,0.0,0.0,82,0.00,,---,0.00,VWS V14.00,2013-01-06 07:28:00,
2013-01-06 02:32:00,28.2,23.1,30.16,NE,38,0.0,0.0,81,0.00,,---,0.00,VWS V14.00,2013-01-06 07:32:00,
2013-01-06 02:38:00,28.3,23.2,30.16,NE,38,0.0,0.0,81,0.00,,---,0.00,VWS V14.00,2013-01-06 07:38:00,
2013-01-06 02:43:00,28.4,23.3,30.16,NE,38,0.0,0.0,81,0.00,,---,0.00,VWS V14.00,2013-01-06 07:43:00,
2013-01-06 02:48:00,28.5,24.0,30.15,NE,38,0.0,0.0,83,0.00,,---,0.00,VWS V14.00,2013-01-06 07:48:00,
2013-01-06 02:53:00,28.5,24.0,30.15,NE,38,0.0,0.0,83,0.00,,---,0.00,VWS V14.00,2013-01-06 07:53:00,
2013-01-06 02:57:00,28.5,23.7,30.14,NE,38,0.0,0.0,82,0.00,,---,0.00,VWS V14.00,2013-01-06 07:57:00,
2013-01-06 03:02:00,28.5,23.1,30.14,NE,38,0.0,0.0,80,0.00,,---,0.00,VWS V14.00,2013-01-06 08:02:00,
2013-01-06 03:07:00,28.5,22.8,30.13,NE,38,0.0,0.0,79,0.00,,---,0.00,VWS V14.00,2013-01-06 08:07:00,
2013-01-06 03:12:00,28.7,23.6,30.12,NE,38,0.0,0.0,81,0.00,,---,0.00,VWS V14.00,2013-01-06 08:12:00,
2013-01-06 03:17:00,28.7,23.6,30.12,NE,38,0.0,0.0,81,0.00,,---,0.00,VWS V14.00,2013-01-06 08:17:00,
2013-01-06 03:22:00,28.8,24.0,30.13,NE,38,0.0,0.0,82,0.00,,---,0.00,VWS V14.00,2013-01-06 08:22:00,
2013-01-06 03:27:00,28.7,23.6,30.13,NE,38,0.0,0.0,81,0.00,,---,0.00,VWS V14.00,2013-01-06 08:27:00,
2013-01-06 03:32:00,28.8,23.7,30.12,NE,38,0.0,0.0,81,0.00,,---,0.00,VWS V14.00,2013-01-06 08:32:00,
2013-01-06 03:37:00,28.8,24.0,30.12,NE,38,0.0,0.0,82,0.00,,---,0.00,VWS V14.00,2013-01-06 08:37:00,
2013-01-06 03:42:00,28.9,24.1,30.11,NE,38,0.0,0.0,82,0.00,,---,0.00,VWS V14.00,2013-01-06 08:42:00,
2013-01-06 03:47:00,28.9,24.4,30.13,NE,38,0.0,0.0,83,0.00,,---,0.00,VWS V14.00,2013-01-06 08:47:00,
2013-01-06 03:52:00,29.0,24.5,30.12,NE,38,0.0,0.0,83,0.00,,---,0.00,VWS V14.00,2013-01-06 08:52:00,
2013-01-06 03:57:00,29.0,24.5,30.11,NE,38,0.0,0.0,83,0.00,,---,0.00,VWS V14.00,2013-01-06 08:57:00,
2013-01-06 04:02:00,29.0,24.5,30.11,NE,38,0.0,0.0,83,0.00,,---,0.00,VWS V14.00,2013-01-06 09:02:00,
2013-01-06 04:07:00,29.0,24.5,30.11,NE,38,0.0,0.0,83,0.00,,---,0.00,VWS V14.00,2013-01-06 09:07:00,
2013-01-06 04:12:00,29.0,24.8,30.11,NE,38,0.0,0.0,84,0.00,,---,0.00,VWS V14.00,2013-01-06 09:12:00,
2013-01-06 04:17:00,29.1,24.9,30.10,NE,38,0.0,0.0,84,0.00,,---,0.00,VWS V14.00,2013-01-06 09:17:00,
2013-01-06 04:22:00,29.0,24.5,30.09,NE,38,0.0,0.0,83,0.00,,---,0.00,VWS V14.00,2013-01-06 09:22:00,
2013-01-06 04:27:00,29.0,24.5,30.09,NE,38,0.0,0.0,83,0.00,,---,0.00,VWS V14.00,2013-01-06 09:27:00,
2013-01-06 04:32:00,29.0,24.8,30.09,NE,38,0.0,0.0,84,0.00,,---,0.00,VWS V14.00,2013-01-06 09:32:00,
2013-01-06 04:37:00,29.1,24.6,30.08,NE,38,1.0,1.0,83,0.00,,---,0.00,VWS V14.00,2013-01-06 09:37:00,
2013-01-06 04:42:00,29.1,24.6,30.08,NE,55,0.0,2.0,83,0.00,,---,0.00,VWS V14.00,2013-01-06 09:42:00,
2013-01-06 04:47:00,29.2,24.4,30.08,NE,55,0.0,0.0,82,0.00,,---,0.00,VWS V14.00,2013-01-06 09:47:00,
2013-01-06 04:52:00,29.3,24.8,30.08,NE,55,2.0,3.0,83,0.00,,---,0.00,VWS V14.00,2013-01-06 09:52:00,
2013-01-06 04:57:00,29.5,24.7,30.09,NE,55,0.0,0.0,82,0.00,,---,0.00,VWS V14.00,2013-01-06 09:57:00,
2013-01-06 05:02:00,29.6,25.1,30.08,NE,55,0.0,0.0,83,0.00,,---,0.00,VWS V14.00,2013-01-06 10:02:00,
2013-01-06 05:07:00,29.6,24.8,30.08,NE,55,0.0,0.0,82,0.00,,---,0.00,VWS V14.00,2013-01-06 10:07:00,
2013-01-06 05:12:00,29.7,25.2,30.08,NE,55,0.0,0.0,83,0.00,,---,0.00,VWS V14.00,2013-01-06 10:12:00,
2013-01-06 05:17:00,29.7,25.2,30.09,NE,55,0.0,0.0,83,0.00,,---,0.00,VWS V14.00,2013-01-06 10:17:00,
2013-01-06 05:22:00,29.6,25.6,30.08,NE,55,0.0,0.0,85,0.00,,---,0.00,VWS V14.00,2013-01-06 10:22:00,
2013-01-06 05:27:00,29.6,25.9,30.08,NE,55,0.0,0.0,86,0.00,,---,0.00,VWS V14.00,2013-01-06 10:27:00,
2013-01-06 05:32:00,29.4,26.0,30.08,NE,55,0.0,0.0,87,0.00,,---,0.00,VWS V14.00,2013-01-06 10:32:00,
2013-01-06 05:37:00,29.3,25.9,30.07,NE,55,0.0,0.0,87,0.00,,---,0.00,VWS V14.00,2013-01-06 10:37:00,
2013-01-06 05:42:00,29.2,25.8,30.07,NE,55,0.0,0.0,87,0.00,,---,0.00,VWS V14.00,2013-01-06 10:42:00,
2013-01-06 05:47:00,29.1,26.0,30.07,NE,55,0.0,0.0,88,0.00,,---,0.00,VWS V14.00,2013-01-06 10:47:00,
2013-01-06 05:52:00,29.0,26.2,30.07,NE,55,0.0,0.0,89,0.00,,---,0.00,VWS V14.00,2013-01-06 10:52:00,
2013-01-06 05:57:00,29.0,26.4,30.06,NE,55,0.0,0.0,90,0.00,,---,0.00,VWS V14.00,2013-01-06 10:57:00,
2013-01-06 06:02:00,29.1,26.5,30.06,NE,55,0.0,0.0,90,0.00,,---,0.00,VWS V14.00,2013-01-06 11:02:00,
2013-01-06 06:07:00,29.2,26.9,30.06,NE,55,0.0,0.0,91,0.00,,---,0.00,VWS V14.00,2013-01-06 11:07:00,
2013-01-06 06:12:00,29.3,27.0,30.06,NE,55,0.0,0.0,91,0.00,,---,0.00,VWS V14.00,2013-01-06 11:12:00,
2013-01-06 06:17:00,29.3,27.0,30.06,NE,55,0.0,0.0,91,0.00,,---,0.00,VWS V14.00,2013-01-06 11:17:00,
2013-01-06 06:22:00,29.4,27.4,30.07,NE,55,0.0,0.0,92,0.00,,---,0.00,VWS V14.00,2013-01-06 11:22:00,
2013-01-06 06:27:00,29.4,27.4,30.07,NE,55,0.0,0.0,92,0.00,,---,0.00,VWS V14.00,2013-01-06 11:27:00,
2013-01-06 06:32:00,29.5,27.5,30.07,NE,55,0.0,0.0,92,0.00,,---,0.00,VWS V14.00,2013-01-06 11:32:00,
2013-01-06 06:37:00,29.6,27.6,30.06,NE,55,0.0,0.0,92,0.00,,---,0.00,VWS V14.00,2013-01-06 11:37:00,
2013-01-06 06:42:00,29.6,27.8,30.06,NE,55,0.0,0.0,93,0.00,,---,0.00,VWS V14.00,2013-01-06 11:42:00,
2013-01-06 06:47:00,29.6,27.8,30.05,NE,55,0.0,0.0,93,0.00,,---,0.00,VWS V14.00,2013-01-06 11:47:00,
2013-01-06 06:52:00,29.7,27.9,30.05,NE,55,0.0,0.0,93,0.00,,---,0.00,VWS V14.00,2013-01-06 11:52:00,
2013-01-06 06:57:00,29.8,28.0,30.05,NE,55,0.0,0.0,93,0.00,,---,0.00,VWS V14.00,2013-01-06 11:57:00,
2013-01-06 07:02:00,29.9,28.1,30.05,NE,55,0.0,0.0,93,0.00,,---,0.00,VWS V14.00,2013-01-06 12:02:00,
2013-01-06 07:07:00,30.1,28.3,30.06,NE,55,0.0,0.0,93,0.00,,---,0.00,VWS V14.00,2013-01-06 12:07:00,
2013-01-06 07:12:00,30.1,28.6,30.05,NE,55,0.0,0.0,94,0.00,,---,0.00,VWS V14.00,2013-01-06 12:12:00,
2013-01-06 07:17:00,30.2,28.7,30.05,NE,55,0.0,0.0,94,0.00,,---,0.00,VWS V14.00,2013-01-06 12:17:00,
2013-01-06 07:22:00,30.3,28.8,30.05,NE,55,0.0,0.0,94,0.00,,---,0.00,VWS V14.00,2013-01-06 12:22:00,
2013-01-06 07:27:00,30.3,28.8,30.06,NE,55,0.0,0.0,94,0.00,,---,0.00,VWS V14.00,2013-01-06 12:27:00,
2013-01-06 07:32:00,30.3,28.8,30.05,NE,55,0.0,0.0,94,0.00,,---,0.00,VWS V14.00,2013-01-06 12:32:00,
2013-01-06 07:37:00,30.3,28.8,30.05,NE,55,0.0,0.0,94,0.00,,---,0.00,VWS V14.00,2013-01-06 12:37:00,
2013-01-06 07:42:00,30.3,28.8,30.05,NE,55,0.0,0.0,94,0.00,,---,0.00,VWS V14.00,2013-01-06 12:42:00,
2013-01-06 07:47:00,30.4,28.9,30.05,NE,55,0.0,0.0,94,0.00,,---,0.00,VWS V14.00,2013-01-06 12:47:00,
2013-01-06 07:52:00,30.5,29.0,30.05,NE,55,0.0,0.0,94,0.00,,---,0.00,VWS V14.00,2013-01-06 12:52:00,
2013-01-06 07:57:00,30.5,29.0,30.05,NE,55,0.0,0.0,94,0.00,,---,0.00,VWS V14.00,2013-01-06 12:57:00,
2013-01-06 08:02:00,30.6,29.3,30.05,NE,55,0.0,0.0,95,0.00,,---,0.00,VWS V14.00,2013-01-06 13:02:00,
2013-01-06 08:07:00,30.8,29.5,30.05,NE,55,0.0,0.0,95,0.00,,---,0.00,VWS V14.00,2013-01-06 13:07:00,
2013-01-06 08:12:00,31.1,29.8,30.05,NE,55,1.0,1.0,95,0.00,,---,0.00,VWS V14.00,2013-01-06 13:12:00,
2013-01-06 08:17:00,31.3,30.0,30.05,NE,55,0.0,1.0,95,0.00,,---,0.00,VWS V14.00,2013-01-06 13:17:00,
2013-01-06 08:22:00,31.4,30.1,30.04,NE,55,0.0,1.0,95,0.00,,---,0.00,VWS V14.00,2013-01-06 13:22:00,
2013-01-06 08:27:00,31.7,30.4,30.05,NE,55,0.0,1.0,95,0.00,,---,0.00,VWS V14.00,2013-01-06 13:27:00,
2013-01-06 08:32:00,31.9,30.6,30.04,NE,55,0.0,0.0,95,0.00,,---,0.00,VWS V14.00,2013-01-06 13:32:00,
2013-01-06 08:37:00,32.0,30.7,30.04,NE,55,0.0,0.0,95,0.00,,---,0.00,VWS V14.00,2013-01-06 13:37:00,
2013-01-06 08:42:00,32.1,30.8,30.04,NE,55,0.0,1.0,95,0.00,,---,0.00,VWS V14.00,2013-01-06 13:42:00,
2013-01-06 08:47:00,32.2,30.9,30.05,NE,55,1.0,1.0,95,0.00,,---,0.00,VWS V14.00,2013-01-06 13:47:00,
2013-01-06 08:52:00,32.4,31.1,30.05,NE,55,0.0,1.0,95,0.00,,---,0.00,VWS V14.00,2013-01-06 13:52:00,
2013-01-06 08:57:00,32.6,31.3,30.05,NE,55,0.0,1.0,95,0.00,,---,0.00,VWS V14.00,2013-01-06 13:57:00,
2013-01-06 09:02:00,32.7,31.4,30.05,NE,55,0.0,0.0,95,0.00,,---,0.00,VWS V14.00,2013-01-06 14:02:00,
2013-01-06 09:07:00,32.7,31.4,30.05,NE,55,1.0,1.0,95,0.00,,---,0.00,VWS V14.00,2013-01-06 14:07:00,
2013-01-06 09:12:00,32.7,31.4,30.05,NE,54,0.0,0.0,95,0.00,,---,0.00,VWS V14.00,2013-01-06 14:12:00,
2013-01-06 09:17:00,32.6,31.3,30.05,SW,232,1.0,1.0,95,0.00,,---,0.00,VWS V14.00,2013-01-06 14:17:00,
2013-01-06 09:22:00,32.6,31.3,30.04,West,281,1.0,1.0,95,0.00,,---,0.00,VWS V14.00,2013-01-06 14:22:00,
2013-01-06 09:27:00,32.6,31.3,30.04,WNW,286,1.0,2.0,95,0.00,,---,0.00,VWS V14.00,2013-01-06 14:27:00,
2013-01-06 09:32:00,32.6,31.3,30.04,WNW,286,0.0,0.0,95,0.00,,---,0.00,VWS V14.00,2013-01-06 14:32:00,
2013-01-06 09:37:00,32.7,31.4,30.04,WNW,286,1.0,2.0,95,0.00,,---,0.00,VWS V14.00,2013-01-06 14:37:00,
2013-01-06 09:42:00,32.8,31.5,30.04,WNW,286,1.0,2.0,95,0.00,,---,0.00,VWS V14.00,2013-01-06 14:42:00,
2013-01-06 09:47:00,33.0,31.7,30.04,West,275,3.0,3.0,95,0.00,,---,0.00,VWS V14.00,2013-01-06 14:47:00,
2013-01-06 09:52:00,33.4,32.1,30.04,West,279,1.0,2.0,95,0.00,,---,0.00,VWS V14.00,2013-01-06 14:52:00,
2013-01-06 09:57:00,33.7,32.4,30.03,SSE,148,2.0,2.0,95,0.00,,---,0.00,VWS V14.00,2013-01-06 14:57:00,
2013-01-06 10:02:00,34.0,32.5,30.03,SSE,168,2.0,2.0,94,0.00,,---,0.00,VWS V14.00,2013-01-06 15:02:00,
2013-01-06 10:07:00,34.3,32.8,30.03,SSW,208,6.0,6.0,94,0.00,,---,0.00,VWS V14.00,2013-01-06 15:07:00,
2013-01-06 10:12:00,34.4,32.6,30.02,SW,232,1.0,2.0,93,0.00,,---,0.00,VWS V14.00,2013-01-06 15:12:00,
2013-01-06 10:17:00,34.6,32.2,30.02,SW,232,2.0,2.0,91,0.00,,---,0.00,VWS V14.00,2013-01-06 15:17:00,
2013-01-06 10:22:00,34.7,32.1,30.02,SW,233,1.0,2.0,90,0.00,,---,0.00,VWS V14.00,2013-01-06 15:22:00,
2013-01-06 10:27:00,34.7,32.1,30.02,NW,313,2.0,2.0,90,0.00,,---,0.00,VWS V14.00,2013-01-06 15:27:00,
2013-01-06 10:32:00,35.0,32.4,30.01,NW,312,2.0,2.0,90,0.00,,---,0.00,VWS V14.00,2013-01-06 15:32:00,
2013-01-06 10:37:00,35.3,32.7,30.01,West,267,2.0,2.0,90,0.00,,---,0.00,VWS V14.00,2013-01-06 15:37:00,
2013-01-06 10:42:00,35.6,32.7,30.01,SW,223,1.0,1.0,89,0.00,,---,0.00,VWS V14.00,2013-01-06 15:42:00,
2013-01-06 10:47:00,35.9,32.7,30.00,SW,229,2.0,2.0,88,0.00,,---,0.00,VWS V14.00,2013-01-06 15:47:00,
2013-01-06 10:52:00,36.1,32.9,30.00,South,190,2.0,2.0,88,0.01,,---,0.01,VWS V14.00,2013-01-06 15:52:00,
2013-01-06 10:57:00,36.2,32.7,30.00,SSW,194,3.0,3.0,87,0.01,,---,0.01,VWS V14.00,2013-01-06 15:57:00,
2013-01-06 11:02:00,36.3,32.8,29.99,SW,235,3.0,3.0,87,0.01,,---,0.01,VWS V14.00,2013-01-06 16:02:00,
2013-01-06 11:07:00,36.4,32.9,29.99,SW,219,1.0,2.0,87,0.01,,---,0.01,VWS V14.00,2013-01-06 16:07:00,
2013-01-06 11:12:00,36.6,33.1,29.98,SSW,198,1.0,2.0,87,0.01,,---,0.01,VWS V14.00,2013-01-06 16:12:00,
2013-01-06 11:17:00,36.8,33.3,29.98,West,280,2.0,3.0,87,0.01,,---,0.01,VWS V14.00,2013-01-06 16:17:00,
2013-01-06 11:22:00,37.0,33.2,29.97,West,273,1.0,4.0,86,0.01,,---,0.01,VWS V14.00,2013-01-06 16:22:00,
2013-01-06 11:27:00,37.1,33.3,29.97,SSW,213,3.0,5.0,86,0.01,,---,0.01,VWS V14.00,2013-01-06 16:27:00,
2013-01-06 11:32:00,37.3,33.2,29.97,SW,214,2.0,4.0,85,0.01,,---,0.01,VWS V14.00,2013-01-06 16:32:00,
2013-01-06 11:37:00,37.4,33.3,29.96,West,259,3.0,5.0,85,0.01,,---,0.01,VWS V14.00,2013-01-06 16:37:00,
2013-01-06 11:42:00,37.4,33.3,29.96,WSW,244,3.0,4.0,85,0.01,,---,0.01,VWS V14.00,2013-01-06 16:42:00,
2013-01-06 11:47:00,37.5,33.4,29.95,SW,230,2.0,3.0,85,0.02,,---,0.02,VWS V14.00,2013-01-06 16:47:00,
2013-01-06 11:52:00,37.7,33.6,29.95,WSW,238,2.0,4.0,85,0.01,,---,0.02,VWS V14.00,2013-01-06 16:52:00,
2013-01-06 11:57:00,37.8,33.7,29.94,WSW,242,2.0,3.0,85,0.02,,---,0.03,VWS V14.00,2013-01-06 16:57:00,
2013-01-06 12:02:00,37.9,33.8,29.94,SW,228,4.0,4.0,85,0.02,,---,0.03,VWS V14.00,2013-01-06 17:02:00,
2013-01-06 12:07:00,38.0,33.6,29.94,SW,227,0.0,2.0,84,0.03,,---,0.04,VWS V14.00,2013-01-06 17:07:00,
2013-01-06 12:12:00,38.1,33.7,29.94,WSW,241,3.0,4.0,84,0.03,,---,0.04,VWS V14.00,2013-01-06 17:12:00,
2013-01-06 12:17:00,38.1,33.7,29.94,WSW,243,4.0,5.0,84,0.03,,---,0.04,VWS V14.00,2013-01-06 17:17:00,
2013-01-06 12:22:00,38.1,33.7,29.93,West,265,2.0,5.0,84,0.04,,---,0.05,VWS V14.00,2013-01-06 17:22:00,
2013-01-06 12:27:00,38.1,33.7,29.93,West,265,3.0,4.0,84,0.04,,---,0.05,VWS V14.00,2013-01-06 17:27:00,
2013-01-06 12:32:00,38.1,33.4,29.93,West,263,2.0,2.0,83,0.04,,---,0.05,VWS V14.00,2013-01-06 17:32:00,
2013-01-06 12:37:00,38.2,33.8,29.93,West,263,3.0,4.0,84,0.05,,---,0.06,VWS V14.00,2013-01-06 17:37:00,
2013-01-06 12:42:00,38.3,33.9,29.92,West,263,1.0,4.0,84,0.05,,---,0.06,VWS V14.00,2013-01-06 17:42:00,
2013-01-06 12:47:00,38.3,33.6,29.92,West,263,4.0,4.0,83,0.04,,---,0.06,VWS V14.00,2013-01-06 17:47:00,
2013-01-06 12:52:00,38.3,33.9,29.92,West,263,1.0,2.0,84,0.05,,---,0.07,VWS V14.00,2013-01-06 17:52:00,
2013-01-06 12:57:00,38.6,34.2,29.92,SSW,206,1.0,3.0,84,0.04,,---,0.07,VWS V14.00,2013-01-06 17:57:00,
2013-01-06 13:02:00,38.9,34.2,29.92,WSW,244,1.0,2.0,83,0.04,,---,0.07,VWS V14.00,2013-01-06 18:02:00,
2013-01-06 13:07:00,39.0,34.0,29.92,WSW,244,4.0,4.0,82,0.03,,---,0.07,VWS V14.00,2013-01-06 18:07:00,
2013-01-06 13:12:00,39.1,34.1,29.91,West,264,5.0,5.0,82,0.04,,---,0.08,VWS V14.00,2013-01-06 18:12:00,
2013-01-06 13:17:00,39.4,34.1,29.91,WSW,243,3.0,5.0,81,0.04,,---,0.08,VWS V14.00,2013-01-06 18:17:00,
2013-01-06 13:22:00,39.6,34.3,29.91,SW,227,2.0,2.0,81,0.03,,---,0.08,VWS V14.00,2013-01-06 18:22:00,
2013-01-06 13:27:00,39.8,34.1,29.91,West,273,2.0,3.0,80,0.03,,---,0.08,VWS V14.00,2013-01-06 18:27:00,
2013-01-06 13:32:00,39.7,34.0,29.91,West,281,4.0,4.0,80,0.04,,---,0.09,VWS V14.00,2013-01-06 18:32:00,
2013-01-06 13:37:00,39.6,34.0,29.91,West,281,2.0,4.0,80,0.03,,---,0.09,VWS V14.00,2013-01-06 18:37:00,
2013-01-06 13:42:00,39.4,33.8,29.91,West,281,4.0,4.0,80,0.04,,---,0.10,VWS V14.00,2013-01-06 18:42:00,
2013-01-06 13:47:00,39.3,34.0,29.91,West,281,4.0,4.0,81,0.04,,---,0.10,VWS V14.00,2013-01-06 18:47:00,
2013-01-06 13:52:00,39.5,33.8,29.91,West,259,2.0,2.0,80,0.03,,---,0.10,VWS V14.00,2013-01-06 18:52:00,
2013-01-06 13:57:00,39.8,33.8,29.91,West,265,5.0,5.0,79,0.03,,---,0.10,VWS V14.00,2013-01-06 18:57:00,
2013-01-06 14:02:00,40.2,33.9,29.91,West,265,1.0,2.0,78,0.03,,---,0.10,VWS V14.00,2013-01-06 19:02:00,
2013-01-06 14:07:00,40.4,34.1,29.91,West,265,1.0,2.0,78,0.04,,---,0.11,VWS V14.00,2013-01-06 19:07:00,
2013-01-06 14:12:00,40.5,33.9,29.91,West,265,1.0,2.0,77,0.03,,---,0.11,VWS V14.00,2013-01-06 19:12:00,
2013-01-06 14:17:00,40.6,34.0,29.91,West,265,1.0,2.0,77,0.03,,---,0.11,VWS V14.00,2013-01-06 19:17:00,
2013-01-06 14:22:00,40.7,33.7,29.91,South,190,5.0,5.0,76,0.03,,---,0.11,VWS V14.00,2013-01-06 19:22:00,
2013-01-06 14:27:00,40.8,33.8,29.91,SSW,194,1.0,2.0,76,0.04,,---,0.12,VWS V14.00,2013-01-06 19:27:00,
2013-01-06 14:32:00,40.6,33.6,29.91,SW,221,3.0,3.0,76,0.03,,---,0.12,VWS V14.00,2013-01-06 19:32:00,
2013-01-06 14:37:00,40.4,33.5,29.91,SW,221,2.0,3.0,76,0.03,,---,0.12,VWS V14.00,2013-01-06 19:37:00,
2013-01-06 14:42:00,40.1,33.5,29.91,SW,222,1.0,1.0,77,0.02,,---,0.12,VWS V14.00,2013-01-06 19:42:00,
2013-01-06 14:47:00,40.1,33.5,29.91,SSW,211,2.0,2.0,77,0.03,,---,0.13,VWS V14.00,2013-01-06 19:47:00,
2013-01-06 14:53:00,39.9,33.3,29.91,SSW,213,2.0,2.0,77,0.03,,---,0.13,VWS V14.00,2013-01-06 19:53:00,
2013-01-06 14:58:00,40.0,33.1,29.91,SSW,213,1.0,2.0,76,0.03,,---,0.13,VWS V14.00,2013-01-06 19:58:00,
2013-01-06 15:03:00,40.0,33.4,29.90,SSW,213,0.0,1.0,77,0.03,,---,0.13,VWS V14.00,2013-01-06 20:03:00,
2013-01-06 15:08:00,39.8,33.2,29.90,SSW,213,1.0,2.0,77,0.02,,---,0.13,VWS V14.00,2013-01-06 20:08:00,
2013-01-06 15:11:00,39.9,33.3,29.90,SSW,213,0.0,1.0,77,0.02,,---,0.13,VWS V14.00,2013-01-06 20:11:00,
2013-01-06 15:13:00,40.0,33.4,29.90,SSW,213,1.0,1.0,77,0.02,,---,0.13,VWS V14.00,2013-01-06 20:13:00,
2013-01-06 15:18:00,40.1,33.5,29.90,SSW,213,0.0,0.0,77,0.02,,---,0.13,VWS V14.00,2013-01-06 20:18:00,
2013-01-06 15:23:00,39.9,33.3,29.90,SSW,213,0.0,0.0,77,0.02,,---,0.13,VWS V14.00,2013-01-06 20:23:00,
2013-01-06 15:28:00,39.6,33.3,29.90,SSW,213,0.0,0.0,78,0.02,,---,0.14,VWS V14.00,2013-01-06 20:28:00,
2013-01-06 15:33:00,39.4,33.1,29.90,SSW,213,0.0,0.0,78,0.02,,---,0.14,VWS V14.00,2013-01-06 20:33:00,
2013-01-06 15:38:00,39.2,33.2,29.89,SSW,213,0.0,0.0,79,0.02,,---,0.14,VWS V14.00,2013-01-06 20:38:00,
2013-01-06 15:43:00,39.0,33.0,29.89,SSW,213,0.0,0.0,79,0.02,,---,0.14,VWS V14.00,2013-01-06 20:43:00,
2013-01-06 15:48:00,38.9,33.0,29.89,SSW,213,0.0,0.0,79,0.01,,---,0.14,VWS V14.00,2013-01-06 20:48:00,
2013-01-06 15:53:00,38.8,33.2,29.90,SSW,213,0.0,0.0,80,0.01,,---,0.14,VWS V14.00,2013-01-06 20:53:00,
2013-01-06 15:58:00,38.7,33.1,29.90,SSW,213,0.0,0.0,80,0.01,,---,0.14,VWS V14.00,2013-01-06 20:58:00,
2013-01-06 16:01:00,38.6,33.0,29.90,SSW,213,0.0,0.0,80,0.01,,---,0.14,VWS V14.00,2013-01-06 21:01:00,
2013-01-06 16:06:00,38.4,32.8,29.90,SSW,213,0.0,0.0,80,0.01,,---,0.14,VWS V14.00,2013-01-06 21:06:00,
2013-01-06 16:11:00,38.2,32.6,29.90,SSW,213,0.0,0.0,80,0.01,,---,0.14,VWS V14.00,2013-01-06 21:11:00,
2013-01-06 16:16:00,37.9,32.6,29.90,SSW,213,0.0,0.0,81,0.02,,---,0.15,VWS V14.00,2013-01-06 21:16:00,
2013-01-06 16:21:00,37.5,32.2,29.90,SSW,213,0.0,0.0,81,0.02,,---,0.15,VWS V14.00,2013-01-06 21:21:00,
2013-01-06 16:26:00,37.3,32.3,29.90,SSW,213,0.0,0.0,82,0.01,,---,0.15,VWS V14.00,2013-01-06 21:26:00,
2013-01-06 16:31:00,37.0,32.0,29.90,SSW,213,0.0,0.0,82,0.01,,---,0.15,VWS V14.00,2013-01-06 21:31:00,
2013-01-06 16:36:00,36.7,32.0,29.90,SSW,213,0.0,0.0,83,0.01,,---,0.15,VWS V14.00,2013-01-06 21:36:00,
2013-01-06 16:41:00,36.4,31.7,29.90,SSW,213,0.0,0.0,83,0.01,,---,0.15,VWS V14.00,2013-01-06 21:41:00,
2013-01-06 16:46:00,36.1,31.7,29.90,SSW,213,0.0,0.0,84,0.01,,---,0.15,VWS V14.00,2013-01-06 21:46:00,
2013-01-06 16:51:00,36.0,31.6,29.91,SSW,213,0.0,0.0,84,0.01,,---,0.15,VWS V14.00,2013-01-06 21:51:00,
2013-01-06 16:56:00,35.8,31.5,29.91,SSW,213,0.0,0.0,84,0.01,,---,0.15,VWS V14.00,2013-01-06 21:56:00,
2013-01-06 17:01:00,35.8,31.7,29.91,SSW,213,0.0,0.0,85,0.01,,---,0.15,VWS V14.00,2013-01-06 22:01:00,
2013-01-06 17:06:00,35.7,31.6,29.91,SSW,213,0.0,0.0,85,0.01,,---,0.15,VWS V14.00,2013-01-06 22:06:00,
2013-01-06 17:11:00,35.6,31.5,29.91,SSW,213,0.0,0.0,85,0.01,,---,0.15,VWS V14.00,2013-01-06 22:11:00,
2013-01-06 17:16:00,35.3,31.0,29.91,SSW,213,0.0,0.0,84,0.00,,---,0.15,VWS V14.00,2013-01-06 22:16:00,
2013-01-06 17:21:00,35.1,31.0,29.91,SSW,213,0.0,0.0,85,0.00,,---,0.15,VWS V14.00,2013-01-06 22:21:00,
2013-01-06 17:26:00,34.9,31.1,29.91,SSW,213,0.0,0.0,86,0.00,,---,0.15,VWS V14.00,2013-01-06 22:26:00,
2013-01-06 17:31:00,34.8,31.0,29.91,SSW,213,0.0,0.0,86,0.00,,---,0.15,VWS V14.00,2013-01-06 22:31:00,
2013-01-06 17:36:00,34.6,30.9,29.91,SSW,213,0.0,0.0,86,0.00,,---,0.15,VWS V14.00,2013-01-06 22:36:00,
2013-01-06 17:41:00,34.4,30.6,29.91,SSW,213,0.0,0.0,86,0.00,,---,0.15,VWS V14.00,2013-01-06 22:41:00,
2013-01-06 17:46:00,34.4,30.6,29.91,SSW,213,0.0,0.0,86,0.00,,---,0.15,VWS V14.00,2013-01-06 22:46:00,
2013-01-06 17:51:00,34.1,30.6,29.91,SSW,213,0.0,0.0,87,0.00,,---,0.15,VWS V14.00,2013-01-06 22:51:00,
2013-01-06 17:56:00,34.0,30.5,29.92,SSW,213,0.0,0.0,87,0.00,,---,0.15,VWS V14.00,2013-01-06 22:56:00,
2013-01-06 18:01:00,33.9,30.7,29.91,SSW,213,0.0,0.0,88,0.00,,---,0.15,VWS V14.00,2013-01-06 23:01:00,
2013-01-06 18:06:00,33.8,30.6,29.91,SSW,213,0.0,0.0,88,0.00,,---,0.15,VWS V14.00,2013-01-06 23:06:00,
2013-01-06 18:11:00,33.7,30.5,29.91,SSW,213,0.0,0.0,88,0.00,,---,0.15,VWS V14.00,2013-01-06 23:11:00,
2013-01-06 18:16:00,33.5,30.3,29.92,SSW,213,0.0,0.0,88,0.00,,---,0.15,VWS V14.00,2013-01-06 23:16:00,
2013-01-06 18:21:00,33.5,30.6,29.92,SSW,213,0.0,0.0,89,0.00,,---,0.15,VWS V14.00,2013-01-06 23:21:00,
2013-01-06 18:26:00,33.6,30.7,29.92,SSW,213,0.0,0.0,89,0.00,,---,0.15,VWS V14.00,2013-01-06 23:26:00,
2013-01-06 18:31:00,33.7,30.8,29.92,SSW,213,0.0,0.0,89,0.00,,---,0.15,VWS V14.00,2013-01-06 23:31:00,
2013-01-06 18:36:00,33.8,30.6,29.92,SSW,213,0.0,0.0,88,0.00,,---,0.15,VWS V14.00,2013-01-06 23:36:00,
2013-01-06 18:41:00,33.7,30.5,29.93,SSW,213,0.0,0.0,88,0.00,,---,0.15,VWS V14.00,2013-01-06 23:41:00,
2013-01-06 18:46:00,33.6,30.4,29.93,SSW,213,0.0,0.0,88,0.00,,---,0.15,VWS V14.00,2013-01-06 23:46:00,
2013-01-06 18:51:00,33.4,30.2,29.93,SSW,213,0.0,0.0,88,0.00,,---,0.15,VWS V14.00,2013-01-06 23:51:00,
2013-01-06 18:56:00,33.2,30.3,29.93,SSW,213,0.0,0.0,89,0.00,,---,0.15,VWS V14.00,2013-01-06 23:56:00,
2013-01-06 19:01:00,32.9,29.7,29.93,SSW,213,0.0,0.0,88,0.00,,---,0.15,VWS V14.00,2013-01-07 00:01:00,
2013-01-06 19:06:00,32.8,29.9,29.93,SSW,213,0.0,0.0,89,0.00,,---,0.15,VWS V14.00,2013-01-07 00:06:00,
2013-01-06 19:11:00,32.7,29.8,29.93,SSW,213,0.0,0.0,89,0.00,,---,0.15,VWS V14.00,2013-01-07 00:11:00,
2013-01-06 19:16:00,32.7,30.1,29.93,SSW,213,0.0,0.0,90,0.00,,---,0.15,VWS V14.00,2013-01-07 00:16:00,
2013-01-06 19:21:00,32.7,30.1,29.93,SSW,213,0.0,0.0,90,0.00,,---,0.15,VWS V14.00,2013-01-07 00:21:00,
2013-01-06 19:26:00,32.6,30.0,29.93,SSW,213,0.0,0.0,90,0.00,,---,0.15,VWS V14.00,2013-01-07 00:26:00,
2013-01-06 19:31:00,32.6,30.0,29.93,SSW,213,0.0,0.0,90,0.00,,---,0.15,VWS V14.00,2013-01-07 00:31:00,
2013-01-06 19:36:00,32.6,30.0,29.93,SSW,213,0.0,0.0,90,0.00,,---,0.15,VWS V14.00,2013-01-07 00:36:00,
2013-01-06 19:41:00,32.6,30.0,29.93,SSW,213,0.0,0.0,90,0.00,,---,0.15,VWS V14.00,2013-01-07 00:41:00,
2013-01-06 19:46:00,32.5,29.9,29.93,SSW,213,0.0,0.0,90,0.00,,---,0.15,VWS V14.00,2013-01-07 00:46:00,
2013-01-06 19:51:00,32.2,29.6,29.94,SSW,213,0.0,0.0,90,0.00,,---,0.15,VWS V14.00,2013-01-07 00:51:00,
2013-01-06 19:56:00,31.7,29.1,29.93,SSW,213,0.0,0.0,90,0.00,,---,0.15,VWS V14.00,2013-01-07 00:56:00,
2013-01-06 20:01:00,31.4,28.8,29.93,SSW,213,0.0,0.0,90,0.00,,---,0.15,VWS V14.00,2013-01-07 01:01:00,
2013-01-06 20:06:00,31.1,28.8,29.93,SSW,213,0.0,0.0,91,0.00,,---,0.15,VWS V14.00,2013-01-07 01:06:00,
2013-01-06 20:11:00,30.9,28.6,29.93,SSW,213,0.0,0.0,91,0.00,,---,0.15,VWS V14.00,2013-01-07 01:11:00,
2013-01-06 20:16:00,30.7,28.4,29.93,SSW,213,0.0,0.0,91,0.00,,---,0.15,VWS V14.00,2013-01-07 01:16:00,
2013-01-06 20:21:00,30.7,28.7,29.93,SSW,213,0.0,0.0,92,0.00,,---,0.15,VWS V14.00,2013-01-07 01:21:00,
2013-01-06 20:26:00,30.6,28.6,29.93,SSW,213,0.0,0.0,92,0.00,,---,0.15,VWS V14.00,2013-01-07 01:26:00,
2013-01-06 20:31:00,30.5,28.5,29.92,SSW,213,0.0,0.0,92,0.00,,---,0.15,VWS V14.00,2013-01-07 01:31:00,
2013-01-06 20:36:00,30.4,28.4,29.93,SSW,213,0.0,0.0,92,0.00,,---,0.15,VWS V14.00,2013-01-07 01:36:00,
2013-01-06 20:41:00,30.6,28.8,29.92,SSW,213,0.0,0.0,93,0.00,,---,0.15,VWS V14.00,2013-01-07 01:41:00,
2013-01-06 20:46:00,30.8,29.0,29.93,SSW,213,0.0,0.0,93,0.00,,---,0.15,VWS V14.00,2013-01-07 01:46:00,
2013-01-06 20:51:00,31.1,29.3,29.93,SSW,213,0.0,0.0,93,0.00,,---,0.15,VWS V14.00,2013-01-07 01:51:00,
2013-01-06 20:56:00,31.3,29.5,29.93,SSW,213,0.0,0.0,93,0.00,,---,0.15,VWS V14.00,2013-01-07 01:56:00,
2013-01-06 21:01:00,31.6,29.8,29.93,SSW,213,0.0,0.0,93,0.00,,---,0.15,VWS V14.00,2013-01-07 02:01:00,
2013-01-06 21:06:00,31.8,30.0,29.93,SSW,213,0.0,0.0,93,0.00,,---,0.15,VWS V14.00,2013-01-07 02:06:00,
2013-01-06 21:11:00,32.0,30.2,29.93,SSW,213,0.0,0.0,93,0.00,,---,0.15,VWS V14.00,2013-01-07 02:11:00,
2013-01-06 21:16:00,32.0,30.2,29.93,SSW,213,0.0,0.0,93,0.00,,---,0.15,VWS V14.00,2013-01-07 02:16:00,
2013-01-06 21:21:00,32.0,30.2,29.93,SSW,213,0.0,0.0,93,0.00,,---,0.15,VWS V14.00,2013-01-07 02:21:00,
2013-01-06 21:26:00,32.2,30.4,29.92,SSW,213,0.0,0.0,93,0.00,,---,0.15,VWS V14.00,2013-01-07 02:26:00,
2013-01-06 21:31:00,32.3,30.5,29.92,SSW,213,0.0,0.0,93,0.00,,---,0.15,VWS V14.00,2013-01-07 02:31:00,
2013-01-06 21:36:00,32.4,30.6,29.93,SSW,213,0.0,0.0,93,0.00,,---,0.15,VWS V14.00,2013-01-07 02:36:00,
2013-01-06 21:41:00,32.4,30.3,29.93,SSW,213,0.0,0.0,92,0.00,,---,0.15,VWS V14.00,2013-01-07 02:41:00,
2013-01-06 21:46:00,32.3,30.2,29.93,SSW,213,0.0,0.0,92,0.00,,---,0.15,VWS V14.00,2013-01-07 02:46:00,
2013-01-06 21:51:00,32.2,30.1,29.93,SSW,213,0.0,0.0,92,0.00,,---,0.15,VWS V14.00,2013-01-07 02:51:00,
2013-01-06 21:56:00,32.0,29.9,29.93,SSW,213,0.0,0.0,92,0.00,,---,0.15,VWS V14.00,2013-01-07 02:56:00,
2013-01-06 22:01:00,31.9,29.8,29.93,SSW,213,0.0,0.0,92,0.00,,---,0.15,VWS V14.00,2013-01-07 03:01:00,
2013-01-06 22:06:00,31.8,29.8,29.93,SSW,213,0.0,0.0,92,0.00,,---,0.15,VWS V14.00,2013-01-07 03:06:00,
2013-01-06 22:11:00,31.9,29.8,29.93,SSW,213,0.0,0.0,92,0.00,,---,0.15,VWS V14.00,2013-01-07 03:11:00,
2013-01-06 22:16:00,31.9,29.8,29.93,SSW,213,0.0,0.0,92,0.00,,---,0.15,VWS V14.00,2013-01-07 03:16:00,
2013-01-06 22:21:00,31.9,29.8,29.93,SSW,213,0.0,0.0,92,0.00,,---,0.15,VWS V14.00,2013-01-07 03:21:00,
2013-01-06 22:26:00,32.0,29.9,29.93,SSW,213,0.0,0.0,92,0.00,,---,0.15,VWS V14.00,2013-01-07 03:26:00,
2013-01-06 22:31:00,32.1,30.0,29.93,SSW,213,0.0,0.0,92,0.00,,---,0.15,VWS V14.00,2013-01-07 03:31:00,
2013-01-06 22:36:00,32.1,30.0,29.93,SSW,213,0.0,0.0,92,0.00,,---,0.15,VWS V14.00,2013-01-07 03:36:00,
2013-01-06 22:41:00,32.2,30.1,29.93,SSW,213,0.0,0.0,92,0.00,,---,0.15,VWS V14.00,2013-01-07 03:41:00,
2013-01-06 22:46:00,32.2,30.1,29.93,SSW,213,0.0,0.0,92,0.00,,---,0.15,VWS V14.00,2013-01-07 03:46:00,
2013-01-06 22:51:00,32.2,30.1,29.93,SSW,213,0.0,0.0,92,0.00,,---,0.15,VWS V14.00,2013-01-07 03:51:00,
2013-01-06 22:56:00,32.1,30.0,29.93,SSW,213,0.0,0.0,92,0.00,,---,0.15,VWS V14.00,2013-01-07 03:56:00,
2013-01-06 23:01:00,31.9,29.8,29.93,SSW,213,0.0,0.0,92,0.00,,---,0.15,VWS V14.00,2013-01-07 04:01:00,
2013-01-06 23:06:00,31.8,29.8,29.93,SSW,213,0.0,0.0,92,0.00,,---,0.15,VWS V14.00,2013-01-07 04:06:00,
2013-01-06 23:11:00,31.7,29.6,29.93,SSW,213,0.0,0.0,92,0.00,,---,0.15,VWS V14.00,2013-01-07 04:11:00,
2013-01-06 23:16:00,31.6,29.5,29.92,SSW,213,0.0,0.0,92,0.00,,---,0.15,VWS V14.00,2013-01-07 04:16:00,
2013-01-06 23:21:00,31.6,29.5,29.92,SSW,213,0.0,0.0,92,0.00,,---,0.15,VWS V14.00,2013-01-07 04:21:00,
2013-01-06 23:26:00,31.6,29.5,29.92,SSW,213,0.0,0.0,92,0.00,,---,0.15,VWS V14.00,2013-01-07 04:26:00,
2013-01-06 23:31:00,31.5,29.5,29.92,SSW,213,0.0,0.0,92,0.00,,---,0.15,VWS V14.00,2013-01-07 04:31:00,
2013-01-06 23:36:00,31.2,29.1,29.92,SSW,213,0.0,0.0,92,0.00,,---,0.15,VWS V14.00,2013-01-07 04:36:00,
2013-01-06 23:41:00,31.0,29.0,29.92,SSW,213,0.0,0.0,92,0.00,,---,0.15,VWS V14.00,2013-01-07 04:41:00,
2013-01-06 23:46:00,30.9,28.9,29.92,SSW,213,0.0,0.0,92,0.00,,---,0.15,VWS V14.00,2013-01-07 04:46:00,
2013-01-06 23:51:00,30.6,28.6,29.92,SSW,213,0.0,0.0,92,0.00,,---,0.15,VWS V14.00,2013-01-07 04:51:00,
2013-01-06 23:56:00,30.4,28.4,29.92,SSW,213,0.0,0.0,92,0.00,,---,0.15,VWS V14.00,2013-01-07 04:56:00,